sat.trackr.live / text

‹ back to catalog

VIGORIDE-7

NORAD 68473 · 2026-067BK

PAYLOAD ACTIVE UNKNOWN

§ Identity

Operator
Country
US
Launch date
2026-03-30
Launch site
AFWTR
Launch vehicle
Mass (kg)
RCS (m²)

External: N2YO · Heavens-Above · Gunter

§ Orbital elements

Epoch: 2026-05-25T00:00:02.000160Z

Period
94.66 min
Inclination
97.4517°
Eccentricity
0.0007432
Mean motion
15.21282379 rev/d
Perigee alt
496.9 km
Apogee alt
507.1 km
Semi-major
6,880.1 km
B*
-2.0428e-3
RAAN
103.8530°
Arg perigee
209.4150°
Mean anomaly
242.0747°
Rev number
500

§ Raw data

VIGORIDE-71 68473U 26067BK  26145.00002315 -.00045459  00000+0 -20428-2 0  99942 68473  97.4517 103.8530 0007432 209.4150 242.0747 15.21282379  5001

JSON: /api/v1/satellites/68473 · /tle

For live sub-satellite position, see the globe view (requires WebGL).

§ Visibility from observer

Set your observer location to see the next 7 days of passes ≥ 10°. The values pass through the URL so the page stays shareable.

No JS? Fill the form by hand. The geolocation button needs JavaScript.